Date String (YYYY-MM-DD hh:mm:ss) UTC,Instrument flags,absolute air pressure of the measurement (hPa),sample flow rate (lpm),inlet stack bypass flow (lpm),air temperature of the measurement (°C),ambient temperature measured by the external sensor (°C),aerosol sample conditioner tube jacket temperature (°C),OPC LED temperature (°C),internal box temperature (°C),relative humidity of the measurement (%),span deviation,mass concentration of particles derived from Lorenz-Mie calculation of OPC scattering (μg/m³),mass concentration of particles derived from Lorenz-Mie calculation of OPC scattering (μg/m³),mass concentration of particles derived from Lorenz-Mie calculation of OPC scattering (μg/m³)
DateTimeUTC,F1_M11,P_M11,Q1_M11,Q2_M11,T1_M11,T2_M11,T3_M11,T4_M11,T5_M11,U1_M11,ZSPAN_M11,X2_M11,X0_M11,X1_M11
2023-07-26 17:00:00,SystemResetWarning,0834.9,5.01,000.00,028.8,025.2,000.0,037.0,030.2,28.7,0000.0,0004.56,0010.30,0003.61
2023-07-26 17:01:00,SystemResetWarning,0834.8,5.00,000.00,028.8,025.6,000.0,037.0,030.1,26.3,0000.0,0004.55,0010.88,0003.61
2023-07-26 17:02:00,SystemResetWarning,0835.1,5.00,000.00,028.8,026.0,000.0,037.1,030.1,28.0,0000.0,0004.55,0011.30,0003.63
2023-07-26 17:03:00,SystemResetWarning,0835.4,5.00,000.00,028.8,026.4,000.0,037.1,030.2,26.3,0000.0,0004.53,0011.22,0003.62
2023-07-26 17:04:00,SystemResetWarning,0835.1,5.00,000.00,028.8,026.8,000.0,037.1,030.3,26.7,0000.0,0004.54,0011.46,0003.61
2023-07-26 17:05:00,SystemResetWarning,0835.0,5.00,000.00,028.9,027.1,000.0,037.2,030.4,24.9,0000.0,0004.56,0012.46,0003.61
2023-07-26 17:06:00,SystemResetWarning,0834.7,5.00,000.00,028.9,027.4,000.0,037.2,030.5,24.2,0000.0,0004.55,0012.22,0003.61
2023-07-26 17:07:00,SystemResetWarning,0834.9,4.99,000.00,028.9,026.7,000.0,037.1,030.4,23.7,0000.0,0004.58,0012.27,0003.62
2023-07-26 17:08:00,SystemResetWarning,0834.9,5.00,000.00,028.9,025.4,000.0,037.0,030.2,24.1,0000.0,0004.60,0012.78,0003.62
2023-07-26 17:09:00,SystemResetWarning,0835.3,5.01,000.00,028.8,025.3,000.0,036.9,030.2,25.3,0000.0,0004.54,0012.79,0003.60
2023-07-26 17:10:00,SystemResetWarning,0835.2,5.01,000.00,028.8,025.6,000.0,037.0,030.1,27.8,0000.0,0004.49,0012.96,0003.59
2023-07-26 17:11:00,SystemResetWarning,0835.2,5.00,000.00,028.7,026.0,000.0,037.0,030.1,27.1,0000.0,0004.52,0013.39,0003.60
2023-07-26 17:12:00,SystemResetWarning,0835.3,5.00,000.00,028.8,026.5,000.0,037.1,030.2,28.1,0000.0,0004.56,0012.75,0003.60
2023-07-26 17:13:00,SystemResetWarning,0835.1,5.00,000.00,028.8,026.8,000.0,037.1,030.3,28.6,0000.0,0004.55,0013.29,0003.59
2023-07-26 17:14:00,SystemResetWarning,0834.9,5.00,000.00,028.8,027.2,000.0,037.1,030.4,30.6,0000.0,0004.56,0013.10,0003.59
2023-07-26 17:15:00,SystemResetWarning,0834.9,4.98,000.00,028.8,026.5,000.0,037.0,030.4,31.3,0000.0,0004.54,0013.33,0003.59
2023-07-26 17:16:00,SystemResetWarning,0834.9,5.01,000.00,028.8,025.3,000.0,036.9,030.2,29.5,0000.0,0004.47,0012.27,0003.57
2023-07-26 17:17:00,SystemResetWarning,0835.1,5.01,000.00,028.7,025.2,000.0,036.9,030.1,30.8,0000.0,0004.46,0012.77,0003.52
2023-07-26 17:18:00,SystemResetWarning,0834.7,5.00,000.00,028.7,025.5,000.0,036.9,030.0,32.0,0000.0,0004.40,0012.21,0003.48
2023-07-26 17:19:00,SystemResetWarning,0834.7,4.99,000.00,028.7,025.9,000.0,037.0,030.1,33.7,0000.0,0004.34,0011.59,0003.44
2023-07-26 17:20:00,SystemResetWarning,0834.7,5.00,000.00,028.7,026.4,000.0,037.0,030.2,32.5,0000.0,0004.35,0012.33,0003.41
2023-07-26 17:21:00,SystemResetWarning,0834.8,4.99,000.00,028.7,026.8,000.0,037.0,030.3,31.9,0000.0,0004.28,0013.02,0003.35
2023-07-26 17:22:00,SystemResetWarning,0835.1,4.99,000.00,028.8,027.1,000.0,037.0,030.4,29.2,0000.0,0004.16,0013.35,0003.27
2023-07-26 17:23:00,SystemResetWarning,0835.1,5.00,000.00,028.8,027.1,000.0,037.0,030.4,29.4,0000.0,0004.05,0013.22,0003.21
2023-07-26 17:24:00,SystemResetWarning,0835.0,5.00,000.00,028.8,025.9,000.0,036.9,030.3,27.2,0000.0,0003.96,0011.97,0003.13
2023-07-26 17:25:00,SystemResetWarning,0835.0,5.01,000.00,028.7,025.1,000.0,036.9,030.2,30.1,0000.0,0003.92,0012.96,0003.09
2023-07-26 17:26:00,SystemResetWarning,0835.2,5.01,000.00,028.7,025.4,000.0,036.9,030.1,30.4,0000.0,0003.91,0012.59,0003.06
2023-07-26 17:27:00,SystemResetWarning,0835.0,5.00,000.00,028.6,025.8,000.0,036.9,030.0,30.3,0000.0,0003.94,0012.54,0003.05
2023-07-26 17:28:00,SystemResetWarning,0835.0,5.00,000.00,028.7,026.2,000.0,036.9,030.1,28.8,0000.0,0003.95,0012.16,0003.09
2023-07-26 17:29:00,SystemResetWarning,0835.0,5.00,000.00,028.7,026.6,000.0,037.0,030.2,30.1,0000.0,0003.93,0012.27,0003.11
2023-07-26 17:30:00,SystemResetWarning,0834.9,4.99,000.00,028.7,027.0,000.0,037.0,030.3,30.9,0000.0,0004.01,0012.57,0003.15
2023-07-26 17:31:00,SystemResetWarning,0835.0,4.99,000.00,028.8,027.0,000.0,037.0,030.4,28.9,0000.0,0004.02,0012.05,0003.20
2023-07-26 17:32:00,SystemResetWarning,0834.9,5.00,000.00,028.7,025.7,000.0,036.9,030.2,28.4,0000.0,0004.05,0011.84,0003.26
2023-07-26 17:33:00,SystemResetWarning,0834.7,5.01,000.00,028.7,025.0,000.0,036.8,030.1,28.9,0000.0,0004.14,0010.92,0003.32
2023-07-26 17:34:00,SystemResetWarning,0834.7,5.01,000.00,028.6,025.3,000.0,036.8,030.0,30.4,0000.0,0004.27,0011.09,0003.40
2023-07-26 17:35:00,SystemResetWarning,0834.7,4.99,000.00,028.6,025.7,000.0,036.9,030.0,30.7,0000.0,0004.39,0011.34,0003.48
2023-07-26 17:36:00,SystemResetWarning,0834.9,5.00,000.00,028.6,026.1,000.0,036.9,030.1,29.0,0000.0,0004.54,0012.00,0003.57
2023-07-26 17:37:00,SystemResetWarning,0834.6,5.01,000.00,028.6,026.5,000.0,036.9,030.2,27.8,0000.0,0004.61,0012.02,0003.62
2023-07-26 17:38:00,SystemResetWarning,0834.6,5.00,000.00,028.7,026.9,000.0,036.9,030.3,27.6,0000.0,0004.59,0012.61,0003.64
2023-07-26 17:39:00,SystemResetWarning,0835.0,5.00,000.00,028.7,027.3,000.0,037.0,030.4,27.3,0000.0,0004.62,0012.64,0003.65
2023-07-26 17:40:00,SystemResetWarning,0834.8,4.99,000.00,028.7,027.3,000.0,037.0,030.5,27.9,0000.0,0004.61,0012.37,0003.63
2023-07-26 17:41:00,SystemResetWarning,0834.7,5.00,000.00,028.7,026.0,000.0,036.9,030.3,26.8,0000.0,0004.56,0012.09,0003.60
2023-07-26 17:42:00,SystemResetWarning,0835.0,5.01,000.00,028.7,025.2,000.0,036.8,030.2,26.4,0000.0,0004.53,0012.00,0003.58
2023-07-26 17:43:00,SystemResetWarning,0835.0,5.01,000.00,028.7,025.5,000.0,036.8,030.1,28.1,0000.0,0004.50,0011.69,0003.55
2023-07-26 17:44:00,SystemResetWarning,0834.7,5.00,000.00,028.6,025.9,000.0,036.9,030.1,27.9,0000.0,0004.49,0011.34,0003.53
2023-07-26 17:45:00,SystemResetWarning,0834.5,5.00,000.00,028.6,026.3,000.0,036.9,030.2,28.5,0000.0,0004.48,0011.38,0003.50
2023-07-26 17:46:00,SystemResetWarning,0834.5,5.00,000.00,028.7,026.7,000.0,036.9,030.3,27.9,0000.0,0004.49,0011.65,0003.48
2023-07-26 17:47:00,SystemResetWarning,0834.5,4.99,000.00,028.7,027.0,000.0,037.0,030.3,29.4,0000.0,0004.39,0010.74,0003.43
2023-07-26 17:48:00,SystemResetWarning,0834.5,4.99,000.00,028.7,027.1,000.0,037.0,030.4,27.8,0000.0,0004.27,0009.93,0003.37
2023-07-26 17:49:00,SystemResetWarning,0834.4,5.00,000.00,028.7,026.0,000.0,036.9,030.3,28.0,0000.0,0004.23,0009.63,0003.32
2023-07-26 17:50:00,SystemResetWarning,0834.3,5.01,000.00,028.7,025.2,000.0,036.8,030.1,28.4,0000.0,0004.17,0009.56,0003.29
2023-07-26 17:51:00,SystemResetWarning,0834.3,5.01,000.00,028.6,025.4,000.0,036.8,030.1,28.6,0000.0,0004.17,0009.80,0003.28
2023-07-26 17:52:00,SystemResetWarning,0834.4,4.99,000.00,028.6,025.8,000.0,036.9,030.0,28.3,0000.0,0004.17,0010.02,0003.27
2023-07-26 17:53:00,SystemResetWarning,0834.2,5.00,000.00,028.6,026.2,000.0,036.9,030.1,28.4,0000.0,0004.12,0009.95,0003.22
2023-07-26 17:54:00,SystemResetWarning,0834.3,5.01,000.00,028.6,026.6,000.0,036.9,030.2,28.0,0000.0,0004.08,0009.87,0003.18
2023-07-26 17:55:00,SystemResetWarning,0834.4,5.00,000.00,028.7,027.0,000.0,037.0,030.3,28.1,0000.0,0004.06,0009.76,0003.16
2023-07-26 17:56:00,SystemResetWarning,0834.3,4.99,000.00,028.7,027.1,000.0,036.9,030.4,27.2,0000.0,0004.00,0009.24,0003.14
2023-07-26 17:57:00,SystemResetWarning,0834.4,4.99,000.00,028.7,025.8,000.0,036.9,030.3,28.1,0000.0,0003.91,0008.68,0003.10
2023-07-26 17:58:00,SystemResetWarning,0834.4,5.01,000.00,028.6,025.0,000.0,036.8,030.1,28.4,0000.0,0003.90,0008.57,0003.09
2023-07-26 17:59:00,SystemResetWarning,0834.4,5.01,000.00,028.6,025.3,000.0,036.8,030.1,28.2,0000.0,0003.89,0008.56,0003.08
